Regional Weather Roundup
Issued by NWS

Home | Current Version | Previous Version | Graphics & Text | Print | Product List | Glossary On
Versions: 1 2 3 4 5 6 7 8 9 10 11 12 13 14 15 16 17 18 19 20 21 22 23 24 25 26 27
000
ASUS45 KBOU 152107
RWRCO

WEATHER ROUNDUP FOR COLORADO
NATIONAL WEATHER SERVICE DENVER/BOULDER CO
300 PM MDT TUE AUG 15 2017

NOTE: "FAIR" INDICATES FEW OR NO CLOUDS BELOW 12000 FEET WITH NO
SIGNIFICANT WEATHER AND/OR OBSTRUCTIONS TO VISIBILITY.

COZ001>005-013-030-031-152200-
...NORTHWEST COLORADO...

CITY           SKY/WX    TMP DP  RH WIND       PRES   REMARKS
CRAIG          FAIR      75  41  29 W24G33    30.00F
HAYDEN         PTSUNNY   72  43  35 NW13      30.04S THUNDER
MEEKER         LGT RAIN  67  45  45 NW13G28   30.03R
RABBIT EARS PA FAIR      54  41  62 W7        30.28F
STEAMBOAT SPGS FAIR      71  43  36 S3        30.02F
WALDEN         FAIR      63  37  39 SE12      30.12F
$$

COZ006>008-011-152200-
...WEST CENTRAL VALLEYS...

CITY           SKY/WX    TMP DP  RH WIND       PRES   REMARKS
GRAND JUNCTION FAIR      81  36  19 W18       29.93R
MONTROSE       FAIR      75  31  19 SW9       30.03S
EAGLE          FAIR      76  29  17 SW22G28   30.03F
RIFLE          FAIR      81  29  15 SW25G32   29.96S
DELTA            N/A    N/A N/A N/A MISG        N/A
NUCLA          FAIR      77  23  13 SW10G21   30.08S
$$

COZ017>023-064>068-152200-
...SOUTHWEST COLORADO...

CITY           SKY/WX    TMP DP  RH WIND       PRES   REMARKS
DURANGO        FAIR      74  27  17 W10       30.10S
CORTEZ         FAIR      75  30  19 SW13      30.07S
PAGOSA SPRINGS FAIR      74  25  16 SW5G21    30.16F
TELLURIDE      PTSUNNY   63  25  23 S10G24    30.26F
WOLF CREEK PAS FAIR      46  30  53 SW21G28   30.47S
$$

COZ009-010-012-014-032>034-037-058>063-152200-
...CENTRAL COLORADO...

CITY           SKY/WX    TMP DP  RH WIND       PRES   REMARKS
ASPEN          FAIR      71  28  20 N8G18     30.10S
BUENA VISTA    FAIR      73  22  14 W7        30.11F
COPPER MTN     FAIR      57  32  38 S10       30.40F
BERTHOUD PASS  FAIR      46  43  87 SW7G21    30.42F
COTTONWOOD PAS FAIR      66  23  19 CALM      30.25F
GUNNISON       FAIR      68  33  27 SW5       30.13F
KREMMLING      FAIR      81  32  17 W10G17    30.06F
LEADVILLE      FAIR      61  28  28 MISG      30.23F
MONARCH PASS   PTSUNNY   54  27  35 SW18G28   30.52R
SALIDA         FAIR      71  37  29 SE8G23    30.15S
SUNLIGHT       PTSUNNY   55  34  44 SW12G22   30.34F
WILKERSON PASS FAIR      59  27  29 SW13G21   30.37S
$$

COZ069>075-152200-
...SAN LUIS VALLEY/SANGRE DE CRISTO MOUNTAINS...

CITY           SKY/WX    TMP DP  RH WIND       PRES   REMARKS
ALAMOSA        FAIR      77  28  16 SW18G29   30.10F
DEL NORTE      FAIR      72  34  24 SW17G24   30.14F
LA VETA PASS   NOT AVBL
SAGUACHE       CLOUDY    70  32  24 SW13G22   30.10S
$$

COZ035-036-038>040-152200-
...NORTHERN COLORADO FRONT RANGE...

CITY           SKY/WX    TMP DP  RH WIND       PRES   REMARKS
DENVER INTL AP PTSUNNY   83  49  30 VRB7      29.90F
DMNS CITY PARK   N/A     77  50  38 N13G18    29.91S
AURORA         PTSUNNY   81  52  36 N7        29.92F
FRONT RANGE AP FAIR      81  50  34 NE6       29.92F
ERIE MUNI ARPT FAIR      83  43  23 NW7G16    29.93F
BOULDER MUN AP PTSUNNY   77  46  33 W13       29.90F
CENTENNIAL     PTSUNNY   80  48  32 N10       29.93F
BROOMFIELD     PTSUNNY   79  43  27 W8        29.95S
FORT COLLINS   FAIR      80  58  46 CALM      29.89F
LONGMONT       FAIR      78  56  46 SW6       29.91F
$$

COZ041-046-047-076>085-087-088-152200-
...PIKES PEAK/PALMER DIVIDE AND SOUTHERN FOOTHILLS...

CITY           SKY/WX    TMP DP  RH WIND       PRES   REMARKS
COLO. SPRINGS  PTSUNNY   83  40  21 NE5       29.95F
A. F. ACADEMY  PTSUNNY   78  43  28 E3        29.96F
SCHRIEVER AFB  FAIR      82  40  22 SE9       29.95F
CHEYENNE MTN   PTSUNNY   76  41  28 W5        29.95F
ELLICOTT       FAIR       1 N/A N/A SW8       29.94F WCI -13
FALCON         FAIR      80  43  26 S10G18    30.01F
FORT CARSON    MOSUNNY   82  41  23 S7        29.90F
LIMON          FAIR      79  56  45 E6        29.91F
MONUMENT HILL  PTSUNNY   72  45  37 E9        30.03S
CANON CITY     MOSUNNY   86  39  19 W7        29.87F
WALSENBURG     FAIR      88  36  15 W17G23    29.93F
TRINIDAD       FAIR      82  44  26 SE8       29.93F
$$

COZ042>045-048>051-090-091-152200-
...NORTHEAST COLORADO...

CITY           SKY/WX    TMP DP  RH WIND       PRES   REMARKS
GREELEY ARPT   FAIR      85  57  38 SE6       29.86F
AKRON          FAIR      80  59  48 VRB3      29.88S
BURLINGTON     FAIR      85  63  47 S20       29.85F
WRAY           NOT AVBL
YUMA           MOCLDY    81  45  28 E7        29.84F
STERLING       FAIR      81  64  57 NE9       29.83F
HOLYOKE        FAIR      86  63  45 SE9       29.83S
FORT MORGAN    FAIR      85  52  32 E9        29.87F
$$

COZ086-089-092>099-152200-
...SOUTHEAST COLORADO...

CITY           SKY/WX    TMP DP  RH WIND       PRES   REMARKS
PUEBLO         FAIR      92  44  19 S9        29.82F
LA JUNTA       FAIR      89  60  37 CALM      29.82F
LAMAR          FAIR      89  58  34 SW7       29.78F
SPRINGFIELD      N/A     83  60  45 S6        29.85S
$$




USA.gov is the U.S. government's official web portal to all federal, state and local government web resources and services.